TimeCST,TemperatureF,Dew PointF,Humidity,Sea Level PressureIn,VisibilityMPH,Wind Direction,Wind SpeedMPH,Gust SpeedMPH,PrecipitationIn,Events,Conditions,WindDirDegrees,DateUTC
12:15 AM,48.2,30.2,50,29.97,10.0,South,9.2,-,N/A,,Clear,190,2012-12-23 06:15:00
12:35 AM,48.2,30.2,50,29.97,10.0,South,6.9,-,N/A,,Clear,190,2012-12-23 06:35:00
12:55 AM,48.2,30.2,50,29.95,10.0,South,6.9,-,N/A,,Clear,190,2012-12-23 06:55:00
1:15 AM,48.2,32.0,54,29.95,10.0,South,9.2,-,N/A,,Clear,190,2012-12-23 07:15:00
1:55 AM,48.2,33.8,58,29.94,10.0,South,6.9,-,N/A,,Clear,190,2012-12-23 07:55:00
2:15 AM,48.2,33.8,58,29.94,10.0,South,6.9,-,N/A,,Clear,190,2012-12-23 08:15:00
2:55 AM,48.2,35.6,62,29.93,10.0,South,9.2,-,N/A,,Clear,190,2012-12-23 08:55:00
3:35 AM,48.2,35.6,62,29.92,10.0,South,8.1,-,N/A,,Clear,190,2012-12-23 09:35:00
3:55 AM,48.2,35.6,62,29.92,10.0,South,9.2,-,N/A,,Clear,190,2012-12-23 09:55:00
4:15 AM,48.2,37.4,66,29.92,10.0,South,9.2,-,N/A,,Clear,190,2012-12-23 10:15:00
4:35 AM,48.2,37.4,66,29.91,10.0,South,6.9,-,N/A,,Clear,190,2012-12-23 10:35:00
4:55 AM,46.4,37.4,71,29.91,10.0,South,6.9,-,N/A,,Clear,180,2012-12-23 10:55:00
5:15 AM,46.4,37.4,71,29.91,10.0,South,6.9,-,N/A,,Clear,180,2012-12-23 11:15:00
5:35 AM,46.4,37.4,71,29.91,10.0,South,6.9,-,N/A,,Clear,180,2012-12-23 11:35:00
5:55 AM,46.4,39.2,76,29.91,10.0,South,6.9,-,N/A,,Clear,190,2012-12-23 11:55:00
6:15 AM,46.4,39.2,76,29.91,10.0,South,5.8,-,N/A,,Clear,180,2012-12-23 12:15:00
6:55 AM,46.4,39.2,76,29.91,10.0,South,6.9,-,N/A,,Clear,180,2012-12-23 12:55:00
7:15 AM,46.4,39.2,76,29.91,10.0,South,6.9,-,N/A,,Clear,180,2012-12-23 13:15:00
7:55 AM,44.6,39.2,81,29.91,10.0,South,5.8,-,N/A,,Clear,170,2012-12-23 13:55:00
8:15 AM,46.4,39.2,76,29.91,10.0,South,5.8,-,N/A,,Clear,170,2012-12-23 14:15:00
8:55 AM,46.4,41.0,81,29.91,10.0,South,4.6,-,N/A,,Clear,180,2012-12-23 14:55:00
9:15 AM,51.8,42.8,71,29.91,10.0,South,6.9,-,N/A,,Clear,180,2012-12-23 15:15:00
9:35 AM,53.6,44.6,72,29.91,10.0,South,9.2,-,N/A,,Clear,190,2012-12-23 15:35:00
10:15 AM,55.4,46.4,72,29.92,10.0,SSW,10.4,-,N/A,,Clear,210,2012-12-23 16:15:00
10:35 AM,57.2,46.4,67,29.91,10.0,WSW,10.4,-,N/A,,Scattered Clouds,240,2012-12-23 16:35:00
10:55 AM,57.2,44.6,63,29.91,10.0,SW,12.7,-,N/A,,Scattered Clouds,220,2012-12-23 16:55:00
11:15 AM,57.2,46.4,67,29.89,10.0,SW,12.7,-,N/A,,Partly Cloudy,230,2012-12-23 17:15:00
11:35 AM,59.0,46.4,63,29.87,10.0,West,10.4,-,N/A,,Mostly Cloudy,260,2012-12-23 17:35:00
11:55 AM,57.2,44.6,63,29.87,10.0,WSW,10.4,-,N/A,,Mostly Cloudy,240,2012-12-23 17:55:00
12:15 PM,59.0,44.6,59,29.86,10.0,SW,9.2,-,N/A,,Mostly Cloudy,220,2012-12-23 18:15:00
12:35 PM,60.8,44.6,55,29.83,10.0,SSW,6.9,-,N/A,,Scattered Clouds,200,2012-12-23 18:35:00
12:55 PM,60.8,44.6,55,29.83,7.0,SW,9.2,-,N/A,,Mostly Cloudy,230,2012-12-23 18:55:00
1:15 PM,59.0,44.6,59,29.83,10.0,SW,8.1,-,N/A,,Scattered Clouds,230,2012-12-23 19:15:00
1:35 PM,60.8,44.6,55,29.82,10.0,SW,8.1,-,N/A,,Scattered Clouds,220,2012-12-23 19:35:00
1:55 PM,60.8,44.6,55,29.81,10.0,SW,9.2,-,N/A,,Mostly Cloudy,220,2012-12-23 19:55:00
2:15 PM,60.8,44.6,55,29.80,10.0,SW,9.2,-,N/A,,Scattered Clouds,230,2012-12-23 20:15:00
2:35 PM,60.8,42.8,52,29.80,10.0,SW,8.1,-,N/A,,Clear,230,2012-12-23 20:35:00
2:55 PM,60.8,44.6,55,29.80,10.0,SW,8.1,-,N/A,,Clear,220,2012-12-23 20:55:00
3:35 PM,60.8,42.8,52,29.80,10.0,SW,5.8,-,N/A,,Partly Cloudy,220,2012-12-23 21:35:00
3:55 PM,60.8,42.8,52,29.80,10.0,SW,5.8,-,N/A,,Clear,220,2012-12-23 21:55:00
4:15 PM,60.8,42.8,52,29.80,10.0,Calm,Calm,-,N/A,,Partly Cloudy,0,2012-12-23 22:15:00
4:35 PM,59.0,42.8,55,29.80,10.0,West,4.6,-,N/A,,Partly Cloudy,280,2012-12-23 22:35:00
4:55 PM,57.2,42.8,59,29.81,10.0,WNW,3.5,-,N/A,,Partly Cloudy,300,2012-12-23 22:55:00
5:15 PM,53.6,41.0,62,29.81,10.0,Calm,Calm,-,N/A,,Scattered Clouds,0,2012-12-23 23:15:00
5:35 PM,51.8,42.8,71,29.81,10.0,Calm,Calm,-,N/A,,Mostly Cloudy,0,2012-12-23 23:35:00
5:55 PM,51.8,41.0,67,29.82,10.0,Calm,Calm,-,N/A,,Overcast,0,2012-12-23 23:55:00
6:15 PM,51.8,42.8,71,29.81,10.0,Calm,Calm,-,N/A,,Overcast,0,2012-12-24 00:15:00
6:35 PM,51.8,42.8,71,29.82,10.0,WNW,3.5,-,N/A,,Overcast,300,2012-12-24 00:35:00
6:55 PM,53.6,42.8,67,29.82,10.0,NNW,3.5,-,N/A,,Overcast,330,2012-12-24 00:55:00
7:15 PM,53.6,42.8,67,29.82,10.0,NNW,4.6,-,N/A,,Mostly Cloudy,340,2012-12-24 01:15:00
7:35 PM,53.6,42.8,67,29.82,10.0,NNW,4.6,-,N/A,,Mostly Cloudy,330,2012-12-24 01:35:00
7:55 PM,51.8,42.8,71,29.81,10.0,NNW,5.8,-,N/A,,Mostly Cloudy,340,2012-12-24 01:55:00
8:15 PM,51.8,42.8,71,29.82,10.0,North,9.2,-,N/A,,Scattered Clouds,360,2012-12-24 02:15:00
8:55 PM,50.0,41.0,71,29.83,10.0,North,9.2,-,N/A,,Overcast,350,2012-12-24 02:55:00
9:35 PM,48.2,39.2,71,29.83,10.0,North,8.1,-,N/A,,Mostly Cloudy,10,2012-12-24 03:35:00
9:55 PM,46.4,37.4,71,29.85,10.0,North,9.2,-,N/A,,Mostly Cloudy,350,2012-12-24 03:55:00
10:15 PM,46.4,35.6,66,29.85,10.0,NNW,8.1,-,N/A,,Scattered Clouds,340,2012-12-24 04:15:00
10:35 PM,44.6,33.8,66,29.86,10.0,North,8.1,-,N/A,,Partly Cloudy,360,2012-12-24 04:35:00
11:15 PM,42.8,32.0,66,29.85,10.0,NNW,6.9,-,N/A,,Clear,340,2012-12-24 05:15:00
11:55 PM,39.2,30.2,70,29.85,10.0,North,8.1,-,N/A,,Clear,360,2012-12-24 05:55:00